OSCAR 7 (AO-7) 1 07530U 74089B 25259.99360602 -.00000029 00000+0 10766-3 0 9995 2 07530 101.9986 265.3297 0011926 293.5292 123.2209 12.53691553326286 PHASE 3B (AO-10) 1 14129U 83058B 25256.06052969 .00000019 00000+0 00000+0 0 9996 2 14129 26.3356 266.5389 6068993 38.4794 352.1757 2.05870262289785 UOSAT 2 (UO-11) 1 14781U 84021B 25260.15794497 .00001395 00000+0 15152-3 0 9991 2 14781 97.7662 224.6282 0008243 19.6763 340.4771 14.89673918216466 LUSAT (LO-19) 1 20442U 90005G 25260.02682719 .00000116 00000+0 58286-4 0 9996 2 20442 98.9011 269.1064 0010549 289.0130 70.9910 14.33990137863241 EYESAT A (AO-27) 1 22825U 93061C 25260.14786660 .00000085 00000+0 49595-4 0 9999 2 22825 98.7272 322.1553 0008521 173.8422 186.2867 14.30829130667952 ITAMSAT (IO-26) 1 22826U 93061D 25260.13786981 .00000103 00000+0 55886-4 0 9996 2 22826 98.7220 322.0368 0009344 158.8231 201.3340 14.31245516668254 RADIO ROSTO (RS-15) 1 23439U 94085A 25260.30818176 -.00000051 00000+0 -23297-3 0 9999 2 23439 64.8202 24.5250 0147394 55.1918 306.2773 11.27581661265133 JAS-2 (FO-29) 1 24278U 96046B 25260.12245811 -.00000019 00000+0 13887-4 0 9998 2 24278 98.5583 140.8476 0350917 84.6680 279.4387 13.53253666436238 TECHSAT 1B (GO-32) 1 25397U 98043D 25259.95239115 .00000085 00000+0 56852-4 0 9990 2 25397 98.9821 241.1957 0000395 334.2361 25.8797 14.24338992412430 ISS (ZARYA) 1 25544U 98067A 25260.12361477 .00008550 00000+0 15572-3 0 9996 2 25544 51.6329 211.3907 0004352 348.5756 11.5133 15.50345634529425 PCSAT (NO-44) 1 26931U 01043C 25260.04970416 .00000167 00000+0 93480-4 0 9996 2 26931 67.0495 230.6473 0007060 275.1421 84.8875 14.31778987251344 SAUDISAT 1C (SO-50) 1 27607U 02058C 25259.42768798 .00001644 00000+0 21806-3 0 9995 2 27607 64.5509 255.3491 0066400 313.2724 46.2852 14.81889063223877 CUTE-1 (CO-55) 1 27844U 03031E 25260.24245610 .00000298 00000+0 14850-3 0 9990 2 27844 98.6792 267.2456 0008434 257.0143 103.0094 14.24068576152829 CUBESAT XI-IV (CO-57) 1 27848U 03031J 25259.95656498 .00000252 00000+0 13014-3 0 9991 2 27848 98.6823 266.8933 0008326 278.0833 81.9400 14.23392926152500 MOZHAYETS 4 (RS-22) 1 27939U 03042A 25260.30272082 .00001072 00000+0 17679-3 0 9990 2 27939 98.3368 72.2324 0012368 57.3641 64.5351 14.72588733175370 CUBESAT XI-V 1 28895U 05043F 25259.88690491 .00001521 00000+0 25405-3 0 9999 2 28895 98.2638 45.5752 0014238 356.9372 3.1745 14.71345012 61545 CUTE-1.7+APD II (CO-65) 1 32785U 08021C 25260.21084149 .00005881 00000+0 41387-3 0 9997 2 32785 97.7956 232.2299 0008142 228.4962 131.5566 15.05424375944063 SEEDS II (CO-66) 1 32791U 08021J 25259.92525880 .00013506 00000+0 60921-3 0 9990 2 32791 97.7370 242.3897 0004499 146.2251 213.9271 15.21134436945585 YUBILEINY (RS-30) 1 32953U 08025A 25260.27638718 .00000000 00000+0 -70810-4 0 9994 2 32953 82.5070 165.1940 0018611 185.0085 175.0811 12.43168103785783 KKS-1 (KISEKI) 1 33499U 09002H 25260.19537870 .00001413 00000+0 18531-3 0 9993 2 33499 98.1125 173.5937 0009636 93.4757 266.7558 14.81918011895746 SWISSCUBE 1 35932U 09051B 25260.18031422 .00001063 00000+0 22398-3 0 9999 2 35932 98.4167 158.2298 0006852 354.3961 5.7161 14.61561826849265 BEESAT-1 1 35933U 09051C 25259.78471939 .00000902 00000+0 19417-3 0 9994 2 35933 98.4098 158.0026 0005653 11.6934 348.4396 14.60941065849259 ITUPSAT1 1 35935U 09051E 25260.15789344 .00000821 00000+0 18220-3 0 9992 2 35935 98.4190 157.8386 0008017 15.2830 344.8610 14.59724505848896 XIWANG-1 (HOPE-1) 1 36122U 09072B 25260.10207577 -.00000035 00000+0 24383-4 0 9998 2 36122 100.3594 213.8154 0007875 133.8671 226.3094 13.16428185757079 O/OREOS (USA 219) 1 37224U 10062C 25259.61629329 .00002504 00000+0 25278-3 0 9995 2 37224 71.9734 339.2654 0016380 233.4543 126.5119 14.91938954 75814 JUGNU 1 37839U 11058B 25260.06543847 .00000440 00000+0 90541-4 0 9997 2 37839 19.9599 167.5874 0018490 300.1258 87.2353 14.13637783720339 SRMSAT 1 37841U 11058D 25260.13664873 .00000417 00000+0 83020-4 0 9999 2 37841 19.9717 272.0788 0011970 80.2124 340.3760 14.11464788719192 STRAND-1 1 39090U 13009E 25260.04715511 .00000290 00000+0 11260-3 0 9996 2 39090 98.3854 82.1568 0008161 334.7945 25.2842 14.36889135657831 ZACUBE-1 (TSHEPISOSAT) 1 39417U 13066B 25260.17674635 .00005773 00000+0 48934-3 0 9996 2 39417 97.7905 216.7639 0045896 79.6670 280.9722 14.97534641639815 GOMX-1 1 39430U 13066Q 25260.28649972 .00001831 00000+0 28899-3 0 9998 2 39430 97.6721 112.8050 0130406 232.8779 126.0455 14.68004642629850 CUBEBUG-2 (LO-74) 1 39440U 13066AA 25260.11651968 .00003546 00000+0 35529-3 0 9992 2 39440 97.8552 204.0626 0060101 209.9890 149.7881 14.90681048636265 FUNCUBE-1 (AO-73) 1 39444U 13066AE 25259.88254159 .00008531 00000+0 61489-3 0 9992 2 39444 97.7926 222.3061 0043241 53.6996 306.8210 15.03648780638508 UWE-3 1 39446U 13066AG 25260.11115858 .00003430 00000+0 32098-3 0 9991 2 39446 97.8316 210.5720 0053253 146.9589 213.4977 14.93687109636768 UNISAT-6 1 40012U 14033C 25260.23910343 .00003450 00000+0 39548-3 0 9991 2 40012 97.7546 53.7601 0046163 246.7428 112.8924 14.85798195605591 DUCHIFAT-1 1 40021U 14033M 25260.03412677 .00025615 00000+0 80690-3 0 9997 2 40021 98.0930 283.3048 0006307 345.3969 14.7088 15.32886393613535 QB50P1 1 40025U 14033R 25259.93132359 .00009185 00000+0 53789-3 0 9997 2 40025 98.0918 248.1964 0012227 81.2438 279.0175 15.12001966611642 LILACSAT-2 1 40908U 15049K 25260.22199639 .00011690 00000+0 28319-3 0 9998 2 40908 97.5033 283.1095 0009854 151.0996 209.0798 15.41201251553566 FOX-1A (AO-85) 1 40967U 15058D 25259.77719189 .00005773 00000+0 51908-3 0 9994 2 40967 64.7764 47.3702 0146707 162.0694 198.5673 14.88690416 72834 CAS-2T & KS-1Q 1 41847U 16066G 25260.21210209 .00001137 00000+0 17133-3 0 9994 2 41847 98.4128 333.7876 0344262 236.9022 119.8686 14.43719051465391 ZHUHAI-1 02 (CAS-4B) 1 42759U 17034B 25260.77593653 .00253825 00000+0 10108-2 0 9998 2 42759 43.0003 77.5730 0024023 284.4587 75.3620 15.84720024458369 ZHUHAI-1 01 (CAS-4A) 1 42761U 17034D 25259.92582928 .00263071 32702-4 92314-3 0 9992 2 42761 43.0029 78.1961 0024511 283.5760 76.2384 15.87955477458269 RADFXSAT (FOX-1B) 1 43017U 17073E 25260.09175370 .00007832 00000+0 38974-3 0 9993 2 43017 97.5097 128.3722 0167747 186.4718 173.4345 15.06327721424186 DIWATA-2B 1 43678U 18084H 25260.28102289 .00001475 00000+0 12779-3 0 9991 2 43678 98.1082 80.2773 0008294 321.5686 38.4944 14.98763317375319 ES'HAIL 2 1 43700U 18090A 25260.23113830 .00000124 00000+0 00000+0 0 9993 2 43700 0.0146 231.1411 0001434 346.8679 247.4389 1.00272339 24948 FOX-1CLIFF (AO-95) 1 43770U 18099N 25260.11735323 .00010342 00000+0 49690-3 0 9998 2 43770 97.4820 317.1607 0009542 218.1328 141.9233 15.18981948371652 ITASAT 1 43786U 18099AE 25260.11450256 .00006620 00000+0 36604-3 0 9999 2 43786 97.4473 312.2817 0013155 216.2937 143.7403 15.14138062371513 JY1SAT (JO-97) 1 43803U 18099AX 25260.13321722 .00012510 00000+0 53314-3 0 9998 2 43803 97.4566 318.4089 0008275 148.5823 211.5909 15.23060937371917 UWE-4 1 43880U 18111E 25259.73827271 .00018039 00000+0 64346-3 0 9991 2 43880 97.5816 174.2597 0009562 208.9776 151.0934 15.28905852368765 DUCHIFAT-3 1 44854U 19089C 25259.89140025 .00085621 00000+0 11312-2 0 9995 2 44854 36.9375 79.5308 0006801 10.4750 349.6151 15.57154185318445 TIANYAN 01 1 44881U 19093C 25260.30545491 .00000834 00000+0 10200-3 0 9993 2 44881 97.7851 333.8442 0012310 263.3281 96.6533 14.85792614310882 RS-44 & BREEZE-KM R/B 1 44909U 19096E 25259.76574464 .00000008 00000+0 -18084-4 0 9990 2 44909 82.5252 161.3987 0218511 63.7471 298.5907 12.79743502267378 SALSAT 1 46495U 20068K 25260.26083134 .00006744 00000+0 28005-3 0 9994 2 46495 97.8708 243.0431 0011455 165.2658 194.8914 15.24135376273707 LEDSAT 1 49069U 21073D 25260.19819905 .00218223 00000+0 10381-2 0 9990 2 49069 97.3768 347.0672 0001623 75.0118 285.1330 15.82307377227054 XW-3 (CAS-9) 1 50466U 21131B 25260.34196392 .00000453 00000+0 15487-3 0 9990 2 50466 98.5082 349.2015 0004158 181.5434 178.5742 14.40925005195811 GREENCUBE (IO-117) 1 53109U 22080E 25258.33036862 -.00000003 00000+0 00000+0 0 9995 2 53109 70.1532 33.8110 0008548 348.4315 11.6148 6.42583778 74403 STRATOSAT-TK 1 (RS52S) 1 57167U 23091B 25260.26045016 .00048517 00000+0 89521-3 0 9992 2 57167 97.5418 327.4926 0005419 298.5678 61.5027 15.48951966123392 UMKA 1 (RS40S) 1 57172U 23091G 25260.21831652 .00005227 00000+0 27161-3 0 9995 2 57172 97.5488 315.0962 0013577 356.5865 3.5272 15.16449187122574 CUBESX-HSE 3 (RS42S) 1 57178U 23091N 25260.21832266 .00008947 00000+0 38680-3 0 9993 2 57178 97.5518 318.3719 0011952 341.0393 19.0396 15.22638968122764 MONITOR-3 (RS58S) 1 57180U 23091Q 25260.16348961 .00008145 00000+0 37255-3 0 9991 2 57180 97.5513 317.3066 0012769 344.6540 15.4306 15.20730302122692 MONITOR-4 (RS57S) 1 57182U 23091S 25260.22231648 .00007716 00000+0 35250-3 0 9999 2 57182 97.5508 317.3245 0012812 345.1133 14.9723 15.20787146122707 MONITOR-2 (RS39S) 1 57184U 23091U 25260.22219692 .00004402 00000+0 23703-3 0 9995 2 57184 97.5515 315.2495 0011472 348.1681 11.9280 15.15300254122567 SVYATOBOR 1 (RS60S) 1 57187U 23091X 25260.21211019 .00006977 00000+0 32287-3 0 9998 2 57187 97.5516 318.0339 0009719 337.0658 23.0141 15.20413270122740 VIZARD-METEO (RS38S) 1 57189U 23091Z 25260.16940294 .00010921 00000+0 43100-3 0 9998 2 57189 97.5505 320.6069 0007775 326.3555 33.7188 15.25694013122915 NANOZOND 1 (RS49S) 1 57190U 23091AA 25260.25160521 .00031372 00000+0 75394-3 0 9990 2 57190 97.5451 326.6344 0004348 300.2780 59.8036 15.41266782123337 POLYTECH-UNIVERSE 3 (R*) 1 57191U 23091AB 25260.21497769 .00004731 00000+0 25307-3 0 9992 2 57191 97.5486 314.7675 0016566 3.2975 356.8364 15.15429630122553 UTMN 2 (RS27S) 1 57203U 23091AP 25260.13685236 .00009941 00000+0 41736-3 0 9997 2 57203 97.5504 319.5717 0008471 329.7748 30.2999 15.23632823122846 ARCCUBE 1 (RS25S) 1 57205U 23091AR 25260.23913426 .00080399 00000+0 10841-2 0 9993 2 57205 97.5350 330.5340 0004065 265.7753 94.3038 15.57536207123619 KUZGTU 1 (RS47S) 1 57217U 23091AV 25260.22167924 .00008400 00000+0 37100-3 0 9990 2 57217 97.5493 317.7955 0012117 343.5544 16.5297 15.21926689122743 SONATE-2 1 59112U 24043Q 25260.15250516 .00021351 00000+0 55042-3 0 9991 2 59112 97.5248 33.6218 0011001 117.9244 242.3117 15.39152937 85636 MESAT1 1 60209U 24125G 25260.00758728 .00021679 00000+0 54684-3 0 9997 2 60209 97.2677 110.6884 0018458 135.7374 224.5352 15.39695480 67232 OOV-CUBE (TUBSAT-30) 1 60240U 24128F 25260.08977472 .00002871 00000+0 23339-3 0 9998 2 60240 61.9945 96.6044 0058000 76.1877 284.5658 15.00801719 65096 COLIBRI-S (RS67S) 1 61746U 24199M 25260.23456281 .00012521 00000+0 37049-3 0 9991 2 61746 97.3406 128.3675 0011282 176.7103 183.4216 15.34974897 95361 HORS 3 (RS81S) 1 61753U 24199U 25260.24778063 .00016352 00000+0 45235-3 0 9997 2 61753 97.3376 128.6785 0009409 181.8650 178.2561 15.37043359 95393 HORS 4 (RS82S) 1 61754U 24199V 25260.25987853 .00017796 00000+0 47555-3 0 9998 2 61754 97.3369 128.9514 0009748 180.1328 179.9917 15.38095373 95419 HORIZON (RS59S) 1 61757U 24199Y 25260.25212869 .00028611 00000+0 64783-3 0 9999 2 61757 97.3386 130.1239 0010047 165.0201 195.1346 15.43031583 95488 SIT-2086 1 61764U 24199AF 25260.22571579 .00012912 00000+0 34370-3 0 9996 2 61764 97.3377 129.3178 0008297 175.8892 184.2423 15.38301510 92270 MORDOVIA-IOT (RS50S) 1 61765U 24199AG 25260.25245509 .00041961 00000+0 76522-3 0 9992 2 61765 97.3350 131.4317 0009259 155.7137 204.4552 15.49288133 92421 RUZAEVKA 390 (RS44S) 1 61766U 24199AH 25260.24942904 .00038242 00000+0 75791-3 0 9990 2 61766 97.3350 130.9773 0009487 157.0528 203.1147 15.46905261 92391 HYPERVIEW 1G (RS66S) 1 61772U 24199AP 25260.26185568 .00022056 00000+0 55798-3 0 9995 2 61772 97.3368 129.1013 0012113 184.0691 176.0459 15.39707995 92272 ALTAIR (RS65S) 1 61779U 24199AW 25260.23695291 .00007805 00000+0 26718-3 0 9993 2 61779 97.3402 126.9459 0014339 196.2982 163.7800 15.30409671 95274 ASRTU-1 (AO-123) 1 61781U 24199AY 25260.25476187 .00006792 00000+0 23813-3 0 9996 2 61781 97.3391 126.7418 0014679 197.4208 162.6531 15.29675812 92117 TUSUR GO (RS78S) 1 61782U 24199AZ 25260.20043169 .00029273 00000+0 68721-3 0 9998 2 61782 97.3358 129.3214 0012118 181.7911 178.3295 15.41917994 92280 SAMSAT-IONOSPHERE (RS7*) 1 61784U 24199BB 25260.24944299 .00017414 00000+0 48442-3 0 9990 2 61784 97.3378 128.3855 0013292 188.7810 171.3204 15.36810299 95373 RTU MIREA 1 (RS51S) 1 61785U 24199BC 25260.25160878 .00018551 00000+0 50492-3 0 9996 2 61785 97.3375 128.5288 0013083 186.5445 173.5631 15.37478384 92237 HADES-R 1 62690U 25009CK 25258.75319976 .00064710 00000+0 17851-2 0 9999 2 62690 97.4018 339.6115 0002932 129.6914 230.4589 15.36859994 37189 TEVEL2-4 1 63213U 25052D 25259.64133838 .00015224 00000+0 65119-3 0 9996 2 63213 97.4172 152.3263 0004063 35.7177 324.4331 15.22911566 28314 TEVEL2-5 1 63214U 25052E 25260.16936295 .00012205 00000+0 52324-3 0 9994 2 63214 97.4175 152.8429 0003996 35.4841 324.6661 15.22887649 28396 TEVEL2-6 1 63215U 25052F 25259.64845079 .00015385 00000+0 65956-3 0 9992 2 63215 97.4173 152.3204 0004139 36.6460 323.5059 15.22833551 28315 TEVEL2-1 1 63217U 25052H 25260.13472405 .00013322 00000+0 57576-3 0 9997 2 63217 97.4147 152.6792 0004666 43.2087 316.9515 15.22587985 28384 TEVEL2-3 1 63218U 25052J 25259.60901436 .00014492 00000+0 62605-3 0 9997 2 63218 97.4149 152.1625 0004792 45.1029 315.0596 15.22584189 28308 TEVEL2-2 1 63219U 25052K 25260.13543887 .00013289 00000+0 57441-3 0 9995 2 63219 97.4148 152.6796 0004684 43.1540 317.0063 15.22584836 28386 TEVEL2-9 1 63237U 25052AD 25259.69037524 .00013428 00000+0 60266-3 0 9994 2 63237 97.4213 152.0567 0009232 42.3670 317.8278 15.21269209 28297 TEVEL2-7 1 63238U 25052AE 25259.69745222 .00013502 00000+0 60751-3 0 9998 2 63238 97.4215 152.0516 0009318 42.3055 317.8898 15.21179316 28293 TEVEL2-8 1 63239U 25052AF 25259.63570834 .00014009 00000+0 63074-3 0 9992 2 63239 97.4215 151.9793 0009318 42.6017 317.5940 15.21148214 28287 HADES-ICM 1 63492U 25052BN 25259.44179787 .00039158 00000+0 14292-2 0 9993 2 63492 97.4163 152.7298 0012499 41.2990 318.9193 15.27952270 28329 INNOSAT 16 (RS92S7) 1 64878U 25155C 25259.84740430 .00004586 00000+0 20589-3 0 9993 2 64878 97.4178 224.2916 0013437 70.3513 289.9172 15.21589471 39052 GEOSCAN 6 (RS92S6) 1 64879U 25155D 25260.14632673 .00009564 00000+0 41184-3 0 9993 2 64879 97.4188 224.6676 0011448 68.6723 291.5734 15.22751506 39104 GEOSCAN 1 (RS92S1) 1 64880U 25155E 25260.21067382 .00009428 00000+0 40518-3 0 9991 2 64880 97.4191 224.7369 0011405 69.1329 291.1127 15.22823460 39113 239ALFEROV (RS61S) 1 64881U 25155F 25259.87620212 .00011989 00000+0 51021-3 0 9995 2 64881 97.4203 224.4296 0011355 70.8661 289.3804 15.23090199 39067 GEOSCAN 2 (RS92S2) 1 64890U 25155Q 25260.19637870 .00009675 00000+0 41094-3 0 9998 2 64890 97.4188 224.7495 0010273 59.4507 300.7742 15.23225263 39110 GEOSCAN 5 (RS92S5) 1 64891U 25155R 25260.12481971 .00012726 00000+0 53496-3 0 9991 2 64891 97.4197 224.6943 0010067 76.0647 284.1709 15.23504334 39105 GEOSCAN 4 (RS92S4) 1 64892U 25155S 25260.12447525 .00012963 00000+0 54465-3 0 9999 2 64892 97.4199 224.6961 0010111 76.7628 283.4736 15.23517336 39102 GEOSCAN 3 (RS92S3) 1 64893U 25155T 25259.85753159 .00014501 00000+0 60531-3 0 9992 2 64893 97.4197 224.4400 0010134 79.5407 280.6972 15.23712230 39064 INNOSAT 3 (RS92S0) 1 64894U 25155U 25259.85111300 .00021360 00000+0 87738-3 0 9998 2 64894 97.4193 224.4493 0010462 83.2442 276.9986 15.24168255 39064